Weather History for KAJZ - January, 2014

Change the Weather History Date:

Sunday, January 12, 2014

  Actual Average (KMTJ) Record (KMTJ)
Temperature  
Mean Temperature 36 °F 26 °F  
Max Temperature 43 °F 38 °F 51 °F (2001)
Min Temperature 29 °F 14 °F -3 °F (2013)
Degree Days  
Heating Degree Days 29 39  
Month to date heating degree days 478  
Since 1 July heating degree days 3086  
Cooling Degree Days 0 0  
Month to date cooling degree days 0  
Year to date cooling degree days 0  
Moisture  
Dew Point 19 °F    
Average Humidity 52    
Maximum Humidity 89    
Minimum Humidity 23    
Precipitation  
Precipitation 0.00 in 0.02 in 0.04 in (2007)
Month to date precipitation 0.26  
Year to date precipitation 0.26  
Sea Level Pressure  
Sea Level Pressure 29.97 in    
Wind  
Wind Speed 9 mph (WNW)    
Max Wind Speed 32 mph    
Max Gust Speed 43 mph    
Visibility 10 miles    
Events Snow    
T = Trace of Precipitation, MM = Missing Value Source: NWS Daily Summary

Daily Weather History Graph

Daily Weather History Graph

Search for Another Location

Airport or City:

Trip Planner

Search our weather history database for the weather conditions in past years. The results will help you decide how hot, cold, wet, or windy it might be!

Date:

Astronomy

Jan. 12, 2014 Rise Set
Actual Time 7:29 AM MST 5:11 PM MST
Civil Twilight 7:00 AM MST 5:40 PM MST
Nautical Twilight 6:27 AM MST 6:13 PM MST
Astronomical Twilight 5:55 AM MST 6:45 PM MST
Moon 2:41 PM MST (1/12) 4:31 AM MST (1/12)
Length of Visible Light 10h 40m
Length of Day
9h 41m
Waxing Gibbous, 90% of the Moon is Illuminated
Jan 12
Waxing Gibbous
Jan 15
Full
Jan 23
Last Quarter
Jan 30
New
Feb 6
First Quarter

Hourly Weather History & Observations

Time (MST) Temp. Windchill Dew Point Humidity Pressure Visibility Wind Dir Wind Speed Gust Speed Precip Events Conditions
12:15 AM 37.6 °F 29.6 °F 26.4 °F 64% 29.88 in 10.0 mi ENE 12.7 mph - N/A   Scattered Clouds
12:35 AM 37.9 °F 35.5 °F 26.1 °F 62% 29.87 in 10.0 mi NE 3.5 mph - N/A   Mostly Cloudy
12:55 AM 38.7 °F 32.9 °F 26.1 °F 61% 29.86 in 10.0 mi ENE 8.1 mph - N/A   Mostly Cloudy
1:15 AM 35.1 °F 30.1 °F 25.3 °F 68% 29.85 in 10.0 mi East 5.8 mph - N/A   Scattered Clouds
1:35 AM 35.2 °F 30.3 °F 25.7 °F 68% 29.84 in 10.0 mi ENE 5.8 mph - N/A   Clear
1:55 AM 33.8 °F 27.0 °F 25.3 °F 71% 29.83 in 10.0 mi ENE 8.1 mph - N/A   Clear
2:15 AM 35.1 °F 32.2 °F 25.5 °F 68% 29.83 in 10.0 mi NNE 3.5 mph - N/A   Clear
2:35 AM 37.0 °F 34.5 °F 25.9 °F 64% 29.82 in 10.0 mi NNE 3.5 mph - N/A   Clear
2:55 AM 36.7 °F - 25.7 °F 64% 29.81 in 10.0 mi Calm Calm - N/A   Clear
3:15 AM 36.7 °F 32.0 °F 25.7 °F 64% 29.80 in 10.0 mi WNW 5.8 mph - N/A   Clear
3:35 AM 37.2 °F - 25.9 °F 64% 29.79 in 10.0 mi Calm Calm - N/A   Clear
3:55 AM 34.2 °F - 24.8 °F 69% 29.79 in 10.0 mi Calm Calm - N/A   Clear
4:15 AM 35.8 °F 33.0 °F 25.5 °F 66% 29.79 in 10.0 mi North 3.5 mph - N/A   Clear
4:35 AM 33.8 °F 29.6 °F 25.0 °F 70% 29.78 in 10.0 mi NNE 4.6 mph - N/A   Clear
4:55 AM 35.1 °F - 25.0 °F 67% 29.78 in 10.0 mi Calm Calm - N/A   Clear
5:15 AM 34.2 °F 29.0 °F 24.8 °F 69% 29.76 in 10.0 mi NE 5.8 mph - N/A   Clear
5:35 AM 34.2 °F 30.0 °F 24.6 °F 68% 29.76 in 10.0 mi NE 4.6 mph - N/A   Clear
5:55 AM 32.2 °F 27.7 °F 24.3 °F 73% 29.76 in 10.0 mi SE 4.6 mph - N/A   Clear
6:15 AM 34.0 °F - 24.8 °F 69% 29.76 in 10.0 mi Calm Calm - N/A   Clear
6:35 AM 33.8 °F 30.8 °F 24.4 °F 69% 29.76 in 10.0 mi NNW 3.5 mph - N/A   Clear
6:55 AM 39.4 °F 37.2 °F 24.6 °F 56% 29.77 in 10.0 mi West 3.5 mph - N/A   Scattered Clouds
7:15 AM 36.5 °F - 24.3 °F 61% 29.77 in 10.0 mi Calm Calm - N/A   Mostly Cloudy
7:35 AM 34.5 °F - 24.4 °F 67% 29.78 in 10.0 mi Calm Calm - N/A   Overcast
7:55 AM 40.8 °F 30.2 °F 28.4 °F 61% 29.82 in 10.0 mi NW 26.5 mph 35.7 mph N/A   Overcast
8:15 AM 36.0 °F 22.6 °F 32.0 °F 86% 29.87 in 1.0 mi WNW 32.2 mph 42.6 mph N/A Snow Light Snow
8:35 AM 34.9 °F 25.3 °F 32.0 °F 89% 29.89 in 0.5 mi West 15.0 mph 20.7 mph N/A Snow Light Snow
8:55 AM 36.9 °F 27.5 °F 30.2 °F 77% 29.87 in 10.0 mi WSW 16.1 mph 29.9 mph N/A   Overcast
9:15 AM 35.6 °F 25.5 °F 31.5 °F 85% 29.89 in 10.0 mi SW 17.3 mph 24.2 mph N/A   Overcast
9:35 AM 34.7 °F 25.9 °F 31.6 °F 89% 29.91 in 10.0 mi SW 12.7 mph 23.0 mph N/A   Scattered Clouds
9:55 AM 34.9 °F 26.2 °F 31.3 °F 87% 29.93 in 10.0 mi WSW 12.7 mph 16.1 mph N/A   Clear
10:15 AM 36.9 °F 30.1 °F 31.8 °F 82% 29.95 in 10.0 mi WSW 9.2 mph - N/A   Scattered Clouds
10:35 AM 39.4 °F 33.2 °F 33.3 °F 79% 29.95 in 10.0 mi SW 9.2 mph - N/A   Scattered Clouds
10:55 AM 38.5 °F 31.6 °F 29.3 °F 70% 29.96 in 10.0 mi West 10.4 mph 16.1 mph N/A   Scattered Clouds
11:15 AM 41.9 °F 33.4 °F 27.1 °F 56% 29.96 in 10.0 mi West 18.4 mph 25.3 mph N/A   Scattered Clouds
11:35 AM 42.4 °F 34.7 °F 25.2 °F 50% 29.96 in 10.0 mi West 16.1 mph 24.2 mph N/A   Clear
11:55 AM 42.8 °F 34.3 °F 24.6 °F 49% 29.96 in 10.0 mi WNW 19.6 mph 27.6 mph N/A   Clear
12:15 PM 41.0 °F 30.9 °F 19.9 °F 43% 29.95 in 10.0 mi WNW 24.2 mph 28.8 mph N/A   Mostly Cloudy
12:35 PM 40.5 °F 32.1 °F 19.4 °F 43% 29.95 in 10.0 mi WNW 16.1 mph 25.3 mph N/A   Scattered Clouds
12:55 PM 40.1 °F 32.4 °F 18.9 °F 43% 29.95 in 10.0 mi West 13.8 mph 21.9 mph N/A   Clear
1:15 PM 41.4 °F 33.3 °F 20.3 °F 43% 29.95 in 10.0 mi West 16.1 mph 23.0 mph N/A   Clear
1:35 PM 42.8 °F 35.4 °F 19.0 °F 39% 29.96 in 10.0 mi West 15.0 mph 29.9 mph N/A   Scattered Clouds
1:55 PM 43.3 °F 35.0 °F 14.5 °F 31% 29.96 in 10.0 mi WNW 19.6 mph 31.1 mph N/A   Scattered Clouds
2:15 PM 43.7 °F 36.0 °F 14.0 °F 30% 29.97 in 10.0 mi West 17.3 mph 27.6 mph N/A   Scattered Clouds
2:35 PM 43.5 °F 35.5 °F 12.9 °F 29% 29.98 in 10.0 mi West 18.4 mph 28.8 mph N/A   Mostly Cloudy
2:55 PM 43.3 °F 34.5 °F 11.5 °F 27% 29.99 in 10.0 mi West 21.9 mph 28.8 mph N/A   Mostly Cloudy
3:15 PM 42.8 °F 35.8 °F 10.0 °F 26% 30.00 in 10.0 mi West 13.8 mph 24.2 mph N/A   Scattered Clouds
3:35 PM 42.3 °F 33.8 °F 6.3 °F 23% 30.01 in 10.0 mi West 18.4 mph 26.5 mph N/A   Clear
3:55 PM 41.7 °F 33.1 °F 7.7 °F 25% 30.02 in 10.0 mi WNW 18.4 mph 24.2 mph N/A   Clear
4:15 PM 41.2 °F 32.7 °F 9.0 °F 27% 30.02 in 10.0 mi West 17.3 mph 25.3 mph N/A   Clear
4:35 PM 39.9 °F 30.2 °F 10.2 °F 30% 30.03 in 10.0 mi West 20.7 mph 25.3 mph N/A   Clear
4:55 PM 39.2 °F 31.2 °F 9.9 °F 30% 30.04 in 10.0 mi WNW 13.8 mph 27.6 mph N/A   Clear
5:15 PM 38.5 °F 28.3 °F 9.5 °F 30% 30.05 in 10.0 mi WNW 20.7 mph 26.5 mph N/A   Clear
5:35 PM 37.6 °F 28.1 °F 10.9 °F 33% 30.07 in 10.0 mi WNW 17.3 mph 23.0 mph N/A   Scattered Clouds
5:55 PM 37.8 °F 30.2 °F 11.7 °F 34% 30.08 in 10.0 mi WNW 11.5 mph 21.9 mph N/A   Mostly Cloudy
6:15 PM 36.7 °F 29.4 °F 12.4 °F 37% 30.10 in 10.0 mi WNW 10.4 mph - N/A   Scattered Clouds
6:35 PM 35.6 °F 28.6 °F 12.6 °F 39% 30.11 in 10.0 mi WNW 9.2 mph - N/A   Scattered Clouds
6:55 PM 35.2 °F 29.5 °F 13.1 °F 40% 30.13 in 10.0 mi WNW 6.9 mph - N/A   Clear
7:15 PM 34.9 °F 28.3 °F 13.5 °F 41% 30.14 in 10.0 mi West 8.1 mph - N/A   Scattered Clouds
7:35 PM 34.7 °F 27.5 °F 11.1 °F 38% 30.15 in 10.0 mi West 9.2 mph - N/A   Clear
7:55 PM 33.6 °F 30.6 °F 11.3 °F 40% 30.17 in 10.0 mi West 3.5 mph - N/A   Clear
8:15 PM 33.4 °F - 9.9 °F 37% 30.17 in 10.0 mi Calm Calm - N/A   Clear
8:35 PM 34.5 °F 24.8 °F 8.6 °F 34% 30.17 in 10.0 mi WNW 15.0 mph 20.7 mph N/A   Clear
8:55 PM 34.9 °F 24.9 °F 9.0 °F 34% 30.19 in 10.0 mi WNW 16.1 mph 21.9 mph N/A   Clear
9:15 PM 34.0 °F 25.0 °F 9.3 °F 36% 30.18 in 10.0 mi West 12.7 mph 19.6 mph N/A   Clear
9:35 PM 33.8 °F 23.2 °F 10.0 °F 37% 30.20 in 10.0 mi WNW 17.3 mph 21.9 mph N/A   Clear
9:55 PM 33.8 °F 25.3 °F 10.4 °F 38% 30.22 in 10.0 mi WNW 11.5 mph 21.9 mph N/A   Clear
10:15 PM 32.4 °F - 10.9 °F 41% 30.22 in 10.0 mi Calm Calm - N/A   Clear
10:35 PM 31.3 °F 27.9 °F 11.1 °F 43% 30.21 in 10.0 mi SW 3.5 mph - N/A   Clear
10:55 PM 29.5 °F 23.4 °F 11.3 °F 47% 30.22 in 10.0 mi SW 5.8 mph - N/A   Clear
11:15 PM 31.3 °F 23.9 °F 10.9 °F 43% 30.24 in 10.0 mi SW 8.1 mph - N/A   Clear
11:35 PM 32.5 °F 24.8 °F 10.8 °F 40% 30.24 in 10.0 mi SW 9.2 mph 16.1 mph N/A   Clear
11:55 PM 32.0 °F 24.8 °F 10.9 °F 42% 30.24 in 10.0 mi SW 8.1 mph - N/A   Clear